Showing default

OPS 9322 (IDSCS 9), 2649

Orbit data source: Space-Track

OPS 9322 (IDSCS 9), 2649 is a payload satellite owned by USAF SSD (US) in GEO that was launched on Wed, 18 Jan 1967 UTC via a TITAN IIIC launch vehicle from the Air Force Eastern Test Range (AFETR). Payloads include a variety of satellites, spacecraft, and rockets equipped with specific instruments for various scientific and technological missions. These include communications satellites like Starlink; space stations such as the ISS; scientific satellites like the Hubble; Earth observation satellites from companies like Planet Labs, Umbra, and HawkEye 360; GPS; miniature CubeSats for education and research; and military/defense satellites.

Loading next visibility...
OPS 9322 (IDSCS 9) details
Identifier
2649, 1967-003B
Orbit
GEO
Last TLE update22 hours ago
Origin
Flag of USUSAF SSD (US)
ManufacturerPhilco-Ford WDL
MissionNon-operational Defense Communications
Bus & MotorIDCSP, Unknown motor
Mass45 kg wet, 45 kg dry
Launch date (UTC)
1967-01-18 (58 years ago)
Launch vehicle
TITAN IIIC
Launch site
Air Force Eastern Test Range (AFETR)
Object type
Payload
Rocket body
Debris
Shape & HBRIco Poly, 0.9 m
Radar Cross Section0.926 m², Medium (>0.1 m² and < 1m²)

Expand to show TLE details & history

TLE from 22 hours ago
0 OPS 9322 (IDSCS 9)
1 02649U 67003B   24355.62656720 -.00000056  00000-0  00000-0 0  9992
2 02649   7.2870  49.3345 0034248 105.4139 307.6674  1.08281211133553
Epoch: 2024-12-20T15:02Z
Definitive object data (Epoch: 2024-12-20T15:02:15.406Z)
Latitude5.81833°
Longitude146.63287°
Altitude33,596.04 km
Speed3.161 km/s
True Right ascension06h 47m 32s
True Declination5° 48' 44"
Sunlit
Object was in daylight at TLE epoch
Visualization TLE readout
Latitude5.94237°
Longitude148.25888°
Altitude33,593.072 km
Speed3.161 km/s
Apparent Right ascension06h 25m 44s
Apparent Declination0° 05' 30"
Sunlit
Object is in daylight
Visualization observer readout
Local Sidereal Time12:20:00
Azimuth269.15° W
Elevation1.159°
Doppler factor1
Orbital elements
Apogee altitude33,819.128 km
Perigee altitude33,544.732 km
Semi-major axis40,060.067 km
Eccentricity0.0034248
Inclination7.287°
RAAN49.3345°
Arg. of periapsis105.4139°
True anomaly307.35593°
Mean anomaly307.6674°
Eccentric anomaly307.51175°
Mean motion0.27069 °/min
BSTARUnknown
Orbital period1329.92 mins
Loading historical data...
2649 neighbors
Authenticating...
Loading maneuver chart data...
Loading historical data...
Loading historical data...
Loading historical data...
Loading historical data...
Loading historical data...
Loading historical data...
Loading historical data...

OPS 9322 (IDSCS 9) Visibility forecast

Observer location: undefined°, undefined

Span
Click to sort rows by Start time (UTC) header in descending order
Start Az.
Max El. time (UTC)
Max El. Az.
Max El.
End time (UTC)
End Az.
433 mins2024-12-22 06:05:04.125Z247.3° WSW2024-12-22 13:18:04.125Z249.608° W22.742°2024-12-22 13:18:04.125Z249.608° W
|